Chicopee, MA

8:05 AM EST on December 08, 2019 (GMT -0500)
Westover Air Reserve Base / Metropolitan Airport

Weather History for KCEF - September, 2019

Change the Weather History Date:

Friday, September 20, 2019

  Actual Average Record
Temperature  
Mean Temperature 57 °F -  
Max Temperature 80 °F 70 °F 84 °F (1998)
Min Temperature 35 °F 48 °F 35 °F (2004)
Degree Days  
Heating Degree Days 8    
Growing Degree Days 7 (Base 50)    
Moisture  
Dew Point 43 °F    
Average Humidity 80    
Maximum Humidity 100    
Minimum Humidity 31    
Precipitation  
Precipitation 0.00 in - - ()
Sea Level Pressure  
Sea Level Pressure 30.21 in    
Wind  
Wind Speed 1 mph ()    
Max Wind Speed 8 mph    
Max Gust Speed -    
Visibility 8.2 miles    
Events      
Averages and records for this station are not official NWS values.
T = Trace of Precipitation, MM = Missing Value Source: Averaged Metar Reports

Daily Weather History Graph

Daily Weather History Graph

Search for Another Location

Airport or City:

Astronomy

Sep. 20, 2019 Rise Set
Actual Time 6:35 AM EDT 6:51 PM EDT
Civil Twilight 6:07 AM EDT 7:19 PM EDT
Nautical Twilight 5:34 AM EDT 7:52 PM EDT
Astronomical Twilight 5:00 AM EDT 8:25 PM EDT
Moon 10:32 PM EDT (9/20) 12:43 PM EDT (9/20)
Length of Visible Light 13h 12m
Length of Day
12h 16m
Waning Gibbous, 65% of the Moon is Illuminated
Sep 20
Waning Gibbous
Sep 21
Last Quarter
Sep 28
New
Oct 5
First Quarter
Oct 13
Full

Hourly Weather History & Observations

Time (EDT) Temp. Windchill Dew Point Humidity Pressure Visibility Wind Dir Wind Speed Gust Speed Precip Events Conditions
12:56 AM 41.5 °F - 40.5 °F 96% 30.26 in 10.0 mi Calm Calm - N/A   Clear
1:56 AM 41.7 °F - 41.0 °F 97% 30.26 in 8.0 mi Calm Calm - N/A   Clear
2:56 AM 40.5 °F - 39.7 °F 97% 30.25 in 10.0 mi Calm Calm - N/A   Clear
3:11 AM 39.2 °F - 39.2 °F 100% 30.24 in 2.2 mi Calm Calm - N/A   Clear
3:26 AM 39.2 °F - 37.4 °F 93% 30.24 in 4.0 mi Calm Calm - N/A   Clear
3:56 AM 38.1 °F - 37.4 °F 97% 30.23 in 1.5 mi Calm Calm - N/A   Clear
4:11 AM 37.4 °F - 37.4 °F 100% 30.23 in 2.8 mi Calm Calm - N/A   Clear
4:26 AM 37.4 °F - 35.6 °F 93% 30.23 in 10.0 mi Calm Calm - N/A   Clear
4:56 AM 36.9 °F 34.3 °F 36.1 °F 97% 30.24 in 2.0 mi NE 3.5 mph - N/A   Clear
5:11 AM 35.6 °F 32.8 °F 35.6 °F 100% 30.24 in 6.0 mi NNE 3.5 mph - N/A   Clear
5:26 AM 35.6 °F - 35.6 °F 100% 30.24 in 2.2 mi Calm Calm - N/A   Clear
5:41 AM 37.4 °F - 35.6 °F 93% 30.24 in 10.0 mi Calm Calm - N/A   Clear
5:56 AM 37.0 °F - 36.3 °F 97% 30.24 in 10.0 mi Calm Calm - N/A   Clear
6:26 AM 35.6 °F - 35.6 °F 100% 30.25 in 1.5 mi Calm Calm - N/A   Clear
6:41 AM 35.6 °F - 35.6 °F 100% 30.25 in 10.0 mi Calm Calm - N/A   Clear
6:56 AM 36.5 °F - 36.0 °F 98% 30.25 in 10.0 mi Calm Calm - N/A   Partly Cloudy
7:56 AM 41.4 °F - 41.2 °F 99% 30.27 in 10.0 mi Calm Calm - N/A   Partly Cloudy
8:56 AM 48.0 °F - 47.5 °F 98% 30.27 in 10.0 mi Calm Calm - N/A   Partly Cloudy
9:56 AM 54.1 °F - 45.7 °F 73% 30.26 in 10.0 mi Calm Calm - N/A   Partly Cloudy
10:56 AM 61.5 °F - 45.7 °F 56% 30.24 in 10.0 mi Calm Calm - N/A   Partly Cloudy
11:56 AM 67.8 °F - 46.8 °F 47% 30.21 in 10.0 mi Calm Calm - N/A   Partly Cloudy
12:56 PM 72.1 °F - 48.4 °F 43% 30.18 in 10.0 mi Calm Calm - N/A   Scattered Clouds
1:56 PM 75.9 °F - 46.2 °F 35% 30.16 in 10.0 mi Calm Calm - N/A   Scattered Clouds
2:56 PM 77.7 °F - 44.6 °F 31% 30.13 in 10.0 mi WNW 5.8 mph - N/A   Partly Cloudy
3:56 PM 79.2 °F - 48.4 °F 34% 30.13 in 10.0 mi WSW 4.6 mph - N/A   Partly Cloudy
4:56 PM 79.0 °F - 47.5 °F 33% 30.12 in 10.0 mi SSW 6.9 mph - N/A   Partly Cloudy
5:56 PM 77.2 °F - 47.3 °F 35% 30.12 in 10.0 mi West 8.1 mph - N/A   Partly Cloudy
6:56 PM 70.2 °F - 51.1 °F 51% 30.13 in 10.0 mi Calm Calm - N/A   Partly Cloudy
7:56 PM 59.9 °F - 53.8 °F 80% 30.15 in 10.0 mi Calm Calm - N/A   Partly Cloudy
8:56 PM 56.1 °F - 52.5 °F 88% 30.16 in 10.0 mi Calm Calm - N/A   Partly Cloudy
9:56 PM 54.5 °F - 51.6 °F 90% 30.17 in 10.0 mi Calm Calm - N/A   Partly Cloudy
10:56 PM 53.1 °F - 50.7 °F 92% 30.17 in 10.0 mi Calm Calm - N/A   Scattered Clouds
11:56 PM 51.1 °F - 50.0 °F 96% 30.16 in 10.0 mi Calm Calm - N/A   Clear